Terug naar catalogus

CZ-4B SEP MOTOR COVER

ActiefSSO
NORAD 44890·DEBRIS·🇨🇳 China
Deze satellietnaam is nog niet bevestigd door officiële bronnen.

Gelanceerd Dec 20, 2019 vanaf Taiyuan Satellite Launch Center

Loading…

Volgende Passages (komende 24 uur)

TLE

VersSource: Space-Track

Epoch: Sep 14, 2026, 13:05 UTC

1 44890U 19093M   26257.54561990  .00013204  00000-0  48029-3 0  9994
2 44890  97.7734   7.8798 0019058   4.0547 356.0842 15.28213832367926

Volg CZ-4B SEP MOTOR COVER in realtime met AllMySat

Download on the App Store